Weather History for Salisbury, MD

Change the Weather History Date:

Saturday, December 7, 2013

  Actual Average Record
Temperature  
Mean Temperature 41 °F 41 °F  
Max Temperature 47 °F 51 °F 77 °F (1998)
Min Temperature 34 °F 32 °F 10 °F (2007)
Degree Days  
Heating Degree Days 24 24  
Month to date heating degree days 122 159  
Since 1 July heating degree days 827 977  
Cooling Degree Days 0 0  
Month to date cooling degree days 0 0  
Year to date cooling degree days 1628 1153  
Moisture  
Dew Point 34 °F    
Average Humidity 74    
Maximum Humidity 89    
Minimum Humidity 58    
Precipitation  
Precipitation 0.16 in 0.12 in 1.75 in (1908)
Month to date precipitation 0.16 0.89  
Year to date precipitation 45.77 42.86  
Snow  
Snow 0.00 in 0.00 in 5.00 in (1995)
Month to date snowfall 0.0 0.3  
Since 1 July snowfall 0.0 0.5  
Snow Depth 0.00 in    
Sea Level Pressure  
Sea Level Pressure 30.31 in    
Wind  
Wind Speed 9 mph (North)    
Max Wind Speed 18 mph    
Max Gust Speed 23 mph    
Visibility 9 miles    
Events Rain    
T = Trace of Precipitation, MM = Missing Value Source: NWS Daily Summary

Daily Weather History Graph

Daily Weather History Graph

Search for Another Location

Airport:

Trip Planner

Search our weather history database for the weather conditions in past years. The results will help you decide how hot, cold, wet, or windy it might be!

Date:

Astronomy

Dec. 07, 2013 Rise Set
Actual Time 7:05 AM EST 4:41 PM EST
Civil Twilight 6:36 AM EST 5:10 PM EST
Nautical Twilight 6:03 AM EST 5:43 PM EST
Astronomical Twilight 5:31 AM EST 6:15 PM EST
Moon 10:52 AM EST (12/7) 10:17 PM EST (12/7)
Length of Visible Light 10h 34m
Length of Day
9h 35m
Waxing Crescent, 29% of the Moon is Illuminated
Dec 7
Waxing Crescent
Dec 9
First Quarter
Dec 17
Full
Dec 25
Last Quarter
Jan 1
New

Hourly Weather History & Observations

Time (EST) Temp. Windchill Dew Point Humidity Pressure Visibility Wind Dir Wind Speed Gust Speed Precip Events Conditions
12:54 AM 43.0 °F 38.2 °F 39.9 °F 89% 30.10 in 5.0 mi NNE 8.1 mph - 0.00 in Rain Light Rain
1:06 AM 42.8 °F 38.0 °F 39.2 °F 87% 30.09 in 6.0 mi ENE 8.1 mph - 0.00 in Rain Light Rain
1:37 AM 44.6 °F 39.7 °F 41.0 °F 87% 30.07 in 4.0 mi East 9.2 mph - 0.01 in Rain Light Rain
1:54 AM 44.1 °F 40.8 °F 41.0 °F 89% 30.07 in 3.0 mi East 5.8 mph - 0.03 in Rain Rain
2:14 AM 44.6 °F 39.7 °F 41.0 °F 87% 30.10 in 5.0 mi NNW 9.2 mph - 0.02 in Rain Light Rain
2:54 AM 43.0 °F 38.8 °F 39.9 °F 89% 30.12 in 10.0 mi North 6.9 mph - 0.04 in Rain Light Rain
3:54 AM 42.1 °F 34.9 °F 37.9 °F 85% 30.17 in 10.0 mi NNW 13.8 mph - 0.06 in Rain Light Rain
4:54 AM 41.0 °F 34.3 °F 37.0 °F 86% 30.19 in 10.0 mi North 11.5 mph 19.6 mph 0.03 in Rain Light Rain
5:20 AM 41.0 °F 35.2 °F 37.4 °F 87% 30.20 in 10.0 mi North 9.2 mph - 0.00 in   Overcast
5:54 AM 41.0 °F 35.2 °F 37.0 °F 86% 30.23 in 5.0 mi North 9.2 mph - 0.00 in Rain Light Rain
6:54 AM 41.0 °F 35.2 °F 37.0 °F 86% 30.26 in 9.0 mi North 9.2 mph - 0.00 in   Overcast
7:54 AM 41.0 °F 34.7 °F 37.0 °F 86% 30.28 in 10.0 mi North 10.4 mph - N/A   Overcast
8:07 AM 41.0 °F 35.2 °F 37.4 °F 87% 30.29 in 10.0 mi North 9.2 mph - N/A   Overcast
8:31 AM 41.0 °F 34.3 °F 37.4 °F 87% 30.29 in 9.0 mi North 11.5 mph - N/A   Overcast
8:54 AM 41.0 °F 34.7 °F 37.0 °F 86% 30.33 in 9.0 mi NNW 10.4 mph - N/A   Overcast
9:03 AM 41.0 °F 35.2 °F 37.4 °F 87% 30.33 in 9.0 mi NNW 9.2 mph - N/A   Overcast
9:54 AM 42.1 °F 35.2 °F 36.0 °F 79% 30.35 in 10.0 mi NNW 12.7 mph - N/A   Overcast
10:54 AM 42.1 °F 37.1 °F 36.0 °F 79% 30.35 in 10.0 mi North 8.1 mph - N/A   Overcast
11:16 AM 42.8 °F 36.6 °F 33.8 °F 70% 30.35 in 10.0 mi North 11.5 mph 19.6 mph N/A   Overcast
11:54 AM 44.1 °F 39.0 °F 35.1 °F 71% 30.35 in 10.0 mi NNW 9.2 mph 18.4 mph N/A   Overcast
12:24 PM 44.6 °F 38.4 °F 33.8 °F 66% 30.34 in 10.0 mi NNW 12.7 mph - N/A   Scattered Clouds
12:54 PM 46.0 °F 39.9 °F 35.1 °F 66% 30.35 in 10.0 mi NNW 13.8 mph - N/A   Mostly Cloudy
1:54 PM 46.0 °F 39.6 °F 33.1 °F 61% 30.35 in 10.0 mi North 15.0 mph 23.0 mph N/A   Overcast
2:54 PM 45.0 °F 38.9 °F 30.0 °F 56% 30.36 in 10.0 mi North 12.7 mph 21.9 mph N/A   Partly Cloudy
3:54 PM 44.1 °F 38.6 °F 30.0 °F 58% 30.38 in 10.0 mi North 10.4 mph 19.6 mph N/A   Clear
4:54 PM 41.0 °F 34.3 °F 28.9 °F 62% 30.42 in 10.0 mi NNW 11.5 mph - N/A   Clear
5:54 PM 39.9 °F 35.1 °F 28.0 °F 63% 30.45 in 10.0 mi North 6.9 mph - N/A   Clear
6:54 PM 37.9 °F - 28.0 °F 68% 30.48 in 10.0 mi Calm Calm - N/A   Clear
7:54 PM 37.0 °F 33.3 °F 27.0 °F 67% 30.48 in 10.0 mi North 4.6 mph - N/A   Clear
8:54 PM 37.0 °F 33.3 °F 26.1 °F 65% 30.50 in 10.0 mi NNE 4.6 mph - N/A   Clear
9:54 PM 36.0 °F 33.3 °F 26.1 °F 67% 30.51 in 10.0 mi NNE 3.5 mph - N/A   Clear
10:54 PM 35.1 °F 29.3 °F 25.0 °F 67% 30.52 in 10.0 mi North 6.9 mph - N/A   Clear
11:54 PM 34.0 °F - 26.1 °F 73% 30.52 in 10.0 mi Calm Calm - N/A   Clear